OneWeb SL0689

operational
NORAD ID: 61597 Int'l Des: 2024-188 Owner: ONEWEBE Country: UK Constellation: oneweb
LEOCIRCULARPOLARONEWEB_TYPE

Über OneWeb SL0689

Beschreibung wird geladen...

Live-Position

3D-Globus wird geladen...

Nächste Überflüge

Höhenverlauf

Altitude vs Time

uPlot chart will show altitude changes over time

Zweizeiliger Elementsatz

1 61597U 24188D 25298.88340427 .00000500 00000-0 13759-2 0 9995
2 61597 87.8815 67.7035 0001775 88.2036 271.9295 13.11419280 53746
Epoch: 25. Okt. 2025 • Age: 11 hours

Aktueller Status

Höhe 1223.0 km
Geschwindigkeit 7.24 km/s
Subsatellitenpunkt -11.70°S, 89.72°W
Startdatum 20. Okt. 2024
Alter 1 years
Typ internet

Technische Details

Klassifizierung Payload
Masse 148.00 kg
Trockenmasse 140.00 kg
Gesamtmasse 148.00 kg
Länge 1.30 m
Durchmesser 1.00 m
Spannweite 5.00 m
Form Trapezoid+2 pan
Hersteller ONEWUS
Bus-Typ ARROW
Phasenstatus In Orbit
Besitzer/Staat ONEWEBE/UK

Große Konstellationen

Loading constellations...